Wind_Speed
24 24 26 27 29 29 30 31 30 29 27 26 25 23 22 21 20 20 20 19 18 17 18 16 15 14 14 15 14 13 13 12 12 12 13 14 15 14 12 11 12 12 12 12 12 13 13 13 12 12 14 16 15 15 14 14 14 13 12 12 12 13 13 14 16 14 10 8 8 7 6 5 5 5 4 4 6 8 8 7 8 8 7 6 5
27 27 27 27 29 29 29 30 31 30 29 27 26 24 24 23 21 21 20 20 19 18 18 17 16 16 17 17 16 16 15 14 13 12 12 13 14 13 12 11 11 12 12 13 13 14 14 13 12 12 14 16 17 17 17 16 15 14 13 14 15 14 13 13 15 15 13 10 8 8 8 7 6 5 4 4 5 8 8 8 8 9 9 9 7
28 28 29 29 29 29 29 29 30 31 31 29 27 25 24 24 23 22 21 19 19 19 19 18 18 18 18 19 18 18 17 16 15 14 13 13 12 12 12 11 12 12 13 13 14 15 16 16 14 14 15 16 18 19 19 18 17 17 16 17 17 15 13 14 14 14 14 12 9 8 8 8 8 7 7 7 7 8 9 10 10 11 11 11 9
28 27 28 29 29 29 29 29 30 31 31 30 28 26 25 24 24 23 21 20 19 19 19 18 18 19 20 21 21 20 20 18 17 17 16 14 14 13 14 14 15 15 15 16 16 17 17 18 17 16 16 17 18 18 19 19 18 18 18 17 17 16 15 15 15 14 15 13 9 8 9 10 10 9 9 10 11 10 10 12 13 13 12 11 11
30 28 27 28 29 30 30 29 30 30 30 29 28 27 26 25 24 24 22 21 19 17 17 19 20 20 20 21 21 22 22 21 20 19 19 18 17 17 18 18 18 18 19 19 20 20 19 19 19 18 18 18 18 17 17 17 17 18 19 17 17 17 17 17 16 14 14 13 11 10 10 11 11 10 11 13 13 13 12 13 13 13 13 13 13
31 29 28 28 30 30 30 30 30 30 30 29 28 26 26 25 25 24 23 21 19 17 18 20 21 21 20 20 20 20 19 20 20 19 20 20 20 21 21 21 20 20 21 21 22 21 21 21 20 18 19 19 19 19 18 18 18 19 19 17 16 16 16 16 15 13 13 13 13 12 11 11 12 12 12 14 15 15 14 14 15 15 15 15 16
32 31 30 29 30 30 31 30 29 29 29 28 28 26 25 25 25 25 24 23 21 20 21 22 21 20 21 21 20 17 16 17 17 17 18 18 19 20 21 22 22 22 22 22 22 22 22 22 20 19 18 18 18 18 19 19 18 18 17 16 15 15 15 14 13 13 13 14 14 13 13 12 12 12 12 13 14 15 15 15 16 16 17 18 19
32 32 31 30 30 30 30 30 30 29 28 28 27 26 24 24 25 25 24 23 22 22 22 22 21 21 21 21 19 17 16 18 17 17 17 18 18 18 19 20 21 21 22 23 24 23 22 22 21 19 18 17 17 17 17 17 17 15 14 14 14 13 13 13 12 12 13 14 14 14 14 14 13 13 14 14 14 14 15 16 16 16 17 19 20
33 33 33 32 30 29 29 30 30 29 29 28 27 25 24 23 24 25 24 23 22 22 23 23 23 23 23 22 20 18 17 19 18 18 18 18 19 19 20 21 21 21 22 23 23 23 22 22 21 19 18 17 16 16 16 16 15 14 13 13 13 12 11 12 11 11 12 14 15 15 15 16 15 14 15 14 14 14 14 16 17 17 17 18 19
33 32 33 32 30 29 29 30 30 30 29 28 26 25 24 23 24 24 25 25 24 22 22 22 22 23 24 24 24 22 21 19 19 18 18 19 19 20 21 22 22 22 21 21 22 22 22 21 19 17 16 16 16 16 16 15 15 14 14 13 13 12 12 12 11 12 13 15 16 16 17 17 15 14 14 14 13 14 14 15 17 18 18 19 19
32 32 33 32 31 30 30 31 31 29 28 26 26 26 25 26 26 26 26 26 25 22 20 19 19 21 22 23 24 25 23 21 20 19 19 20 21 21 22 22 22 21 20 21 22 22 21 19 17 16 15 15 15 15 15 15 16 15 15 15 15 15 14 14 13 13 15 16 16 16 17 18 16 15 15 15 15 15 15 15 16 17 18 19 19
35 35 34 32 31 30 31 33 32 30 28 26 26 27 28 28 28 28 28 27 26 25 23 23 21 20 21 20 21 22 22 21 20 19 20 21 22 22 22 22 21 20 20 21 22 21 20 18 18 17 16 14 14 15 16 16 16 16 16 17 17 16 15 15 15 15 16 17 17 17 17 17 16 15 15 16 16 16 16 16 16 17 17 18 19
37 37 36 34 30 28 30 33 33 32 31 27 26 25 27 28 28 29 28 27 26 26 26 25 23 21 21 21 20 21 21 21 21 21 22 22 23 23 23 22 21 21 21 22 22 22 20 19 19 18 16 15 14 15 16 17 17 16 16 16 16 16 16 15 15 15 16 16 17 17 16 17 17 17 16 16 16 17 17 17 17 18 18 19 20
36 37 35 33 30 27 28 30 31 33 33 28 24 23 24 25 26 26 26 25 25 25 25 24 23 22 22 22 22 22 22 22 23 23 23 23 23 24 24 23 22 22 21 22 23 22 19 18 17 17 16 16 15 15 17 17 16 16 15 15 16 16 16 15 15 15 16 16 17 18 18 17 18 18 17 16 17 18 19 19 19 20 20 21 21
32 32 31 29 27 26 27 28 28 30 30 27 25 25 26 26 24 22 22 23 23 23 23 23 23 23 23 23 23 23 23 23 23 23 24 24 24 24 24 24 23 21 20 21 22 20 19 17 17 17 17 15 13 14 16 16 15 15 14 14 16 16 16 16 16 16 16 17 19 20 19 18 18 19 19 18 19 20 21 22 23 23 23 23 24
28 27 26 27 27 25 24 24 25 25 25 24 24 28 30 28 24 22 21 22 23 24 23 23 22 21 21 21 22 23 23 23 23 23 23 23 23 24 24 24 23 21 21 21 20 19 19 18 18 18 18 16 14 15 16 16 16 16 15 15 16 16 17 18 17 16 16 18 20 21 21 20 20 21 21 21 22 23 23 23 24 23 24 25 25
24 24 26 26 25 22 20 19 20 20 19 18 20 24 26 24 22 21 20 20 21 22 22 20 19 18 20 21 22 22 23 23 22 23 23 23 24 24 24 25 24 21 20 20 19 19 19 19 18 18 18 17 16 16 16 17 17 16 15 17 17 17 17 17 16 15 16 17 18 19 20 20 21 22 22 23 24 24 23 23 22 22 23 25 26
20 23 24 24 22 20 19 19 17 16 16 15 17 19 19 19 19 20 19 19 19 20 20 19 19 20 21 22 22 22 22 22 22 23 23 24 25 26 27 26 23 20 19 19 19 19 17 17 17 16 16 16 16 16 16 16 16 16 16 17 17 17 17 16 15 16 18 18 17 18 20 21 22 23 24 24 24 24 24 24 22 22 23 24 26
15 17 19 19 19 18 18 18 17 15 14 14 14 14 14 15 16 17 17 18 19 19 20 20 20 21 22 21 21 22 22 23 24 23 24 25 25 27 28 26 23 21 20 18 18 17 14 13 12 13 13 15 15 15 14 14 14 14 15 16 16 16 16 16 17 18 19 19 18 19 20 21 22 24 24 24 24 24 23 23 22 21 22 23 24
13 15 16 16 16 16 16 17 17 17 16 15 14 14 14 15 16 16 17 17 18 19 20 21 21 22 22 21 22 23 24 24 25 25 25 25 26 27 27 23 20 20 19 16 15 15 12 10 10 10 12 14 14 14 14 13 13 14 14 15 15 15 16 16 17 18 18 18 18 18 18 18 19 20 21 21 21 21 20 19 19 20 21 23 23
14 15 16 16 16 16 15 15 15 15 14 14 14 14 13 13 14 15 16 16 17 18 18 19 19 20 20 21 22 23 24 25 25 26 26 25 26 26 24 20 16 16 16 14 13 11 9 8 8 9 11 12 12 12 11 11 11 12 12 13 13 13 14 14 14 15 15 15 15 15 15 15 15 15 14 13 14 15 16 16 16 17 19 21 22
11 12 15 16 15 14 13 13 12 11 10 10 9 9 7 7 7 9 10 11 12 13 13 14 14 16 18 19 21 21 22 22 23 24 24 23 22 22 20 16 11 11 12 12 10 8 7 6 5 6 7 8 8 8 7 7 7 7 8 8 8 9 10 11 11 12 11 11 11 11 11 11 11 11 10 8 7 10 12 14 14 16 17 19 20
8 9 11 13 13 12 10 9 8 7 6 5 4 3 1 0 1 1 1 2 3 3 4 5 7 10 12 13 14 15 15 15 16 17 17 15 14 14 13 10 7 7 10 11 8 6 4 2 1 2 2 3 4 5 6 7 7 6 6 6 7 7 8 9 9 9 8 7 7 7 7 7 6 6 5 4 5 6 8 10 11 12 13 13 14
12 13 15 16 16 15 14 12 11 10 8 6 5 4 4 4 4 4 4 4 5 5 5 5 3 1 2 3 5 6 7 7 8 11 12 11 9 9 8 6 5 5 6 6 5 5 4 4 5 5 5 6 6 7 7 7 6 7 8 8 8 9 9 10 11 9 8 7 6 6 6 5 5 6 7 8 8 8 8 8 8 8 9 9 9
19 21 21 20 20 19 18 17 16 15 13 11 10 10 9 8 9 9 9 8 8 9 9 9 8 8 6 5 5 5 3 2 2 5 7 8 7 7 6 5 4 1 6 9 9 9 9 10 10 10 10 10 10 10 10 10 9 9 9 9 9 10 11 11 10 8 7 7 7 8 9 9 9 10 12 12 11 10 10 10 9 9 9 9 9
22 23 22 22 21 20 19 19 18 17 16 15 15 15 13 12 12 12 12 12 12 12 12 11 10 10 9 9 10 10 9 7 6 4 5 5 4 5 5 4 4 5 9 11 12 11 12 13 13 13 13 14 14 14 13 12 11 11 11 12 12 12 12 12 10 9 9 9 9 10 11 11 11 10 11 11 11 10 11 11 11 10 10 10 9
24 23 23 22 21 20 20 20 20 19 19 18 18 17 16 14 14 14 14 14 14 14 13 13 12 12 12 12 12 11 11 11 10 9 9 9 8 7 9 10 10 11 12 13 14 14 14 14 13 13 14 15 16 15 14 12 11 12 13 14 15 15 14 14 13 13 12 12 11 11 11 11 10 9 9 10 10 11 12 12 13 12 12 12 11
25 26 25 25 24 23 22 22 21 21 21 20 20 19 18 17 16 16 15 15 15 15 15 15 15 15 15 14 13 13 12 12 12 12 11 11 12 13 14 16 16 16 15 15 14 14 13 13 13 14 13 14 14 14 13 13 13 13 13 13 14 14 14 13 13 13 13 12 11 11 11 11 12 12 12 12 11 12 12 12 12 12 12 12 12
27 28 28 28 27 26 25 24 23 22 22 22 22 22 21 20 19 18 18 17 16 16 16 17 17 16 16 15 14 14 14 14 15 15 15 14 15 16 18 19 18 16 14 12 11 12 12 12 12 11 11 11 12 12 13 13 12 12 12 11 11 11 11 12 13 13 12 11 11 11 12 12 12 13 13 13 13 13 14 13 13 12 12 12 11
27 28 28 28 28 27 27 26 25 24 23 22 22 23 23 22 21 21 20 20 19 18 17 17 17 15 14 14 15 15 16 16 16 16 16 16 16 17 18 17 14 12 11 10 9 10 10 9 9 9 9 9 11 12 12 12 12 12 11 10 10 11 12 13 15 15 13 13 13 13 13 13 13 13 13 14 14 15 15 15 15 14 14 13 12
25 26 26 26 25 25 25 25 24 24 23 22 22 22 22 22 22 22 21 21 20 19 18 18 17 15 14 14 15 16 16 16 16 16 16 16 16 16 15 13 10 9 7 5 6 7 7 6 7 8 8 8 10 11 12 12 13 13 13 13 14 15 15 16 17 16 14 14 14 13 13 13 13 13 13 14 14 14 15 16 16 15 15 14 13
19 21 21 22 22 22 22 22 22 22 22 22 21 20 20 20 21 21 21 20 20 19 18 17 16 16 15 16 16 16 16 16 16 16 16 15 15 14 14 12 10 8 5 3 4 6 6 5 6 6 6 8 9 11 11 12 14 15 15 16 17 17 17 17 16 15 15 15 15 14 13 13 12 12 12 13 13 14 15 16 16 15 14 13 13
16 17 17 18 18 18 18 19 19 19 19 19 19 19 19 19 19 20 20 19 19 19 18 16 15 15 15 15 15 15 15 15 14 14 14 13 12 12 12 12 11 8 4 2 4 6 5 5 6 7 7 9 10 11 12 14 15 15 16 16 17 17 17 16 15 14 15 16 16 15 14 13 12 12 12 12 13 13 14 14 14 13 13 12 12
14 14 15 16 16 16 16 15 15 15 15 15 16 16 16 17 18 19 19 19 19 18 17 16 15 14 13 13 13 13 13 12 12 12 12 12 11 10 9 10 9 7 5 5 6 7 7 7 8 9 9 10 11 12 14 15 16 16 17 17 17 17 16 16 16 17 17 17 17 17 17 16 15 15 15 15 15 14 13 13 13 13 13 12 12
12 12 11 12 13 13 12 12 12 12 11 12 13 13 13 14 15 16 17 17 18 18 17 16 14 13 12 12 12 11 11 11 12 13 13 13 13 11 10 10 9 8 9 9 9 9 9 9 10 11 11 11 12 13 13 14 15 15 15 16 17 17 17 17 18 19 19 19 18 18 18 18 18 19 19 19 18 17 15 14 13 12 12 12 12
9 9 8 8 8 8 8 8 8 8 8 9 10 11 11 11 12 13 14 14 15 15 15 15 14 12 11 11 11 10 10 10 11 11 12 12 12 11 11 12 12 11 11 11 11 10 10 10 11 11 11 11 11 12 12 12 13 13 14 15 16 16 17 18 19 20 20 20 20 20 20 19 19 20 20 20 20 19 16 14 13 12 11 12 11
6 6 5 5 5 6 6 5 5 5 5 6 8 8 9 9 9 10 11 11 11 12 12 13 12 11 10 10 10 9 8 8 8 8 8 8 8 8 9 12 12 11 10 11 11 10 10 10 10 11 10 10 11 11 10 11 11 12 13 14 15 15 16 17 18 19 20 20 21 21 21 22 21 20 20 19 18 17 15 13 12 11 11 11 11
3 2 2 3 5 5 5 4 4 4 5 5 6 6 6 6 7 8 9 9 8 8 9 10 11 10 9 8 8 7 6 6 5 5 5 5 5 5 7 9 10 9 8 9 9 9 9 9 10 10 9 9 9 9 9 9 10 11 12 13 14 15 16 17 18 19 19 20 21 21 21 22 21 21 19 17 16 15 14 13 12 11 11 11 11
4 4 3 4 6 5 5 4 4 4 5 5 5 5 6 6 7 7 8 7 7 6 7 7 8 8 8 6 5 5 4 4 3 3 4 4 3 4 5 7 8 8 7 7 8 7 7 8 8 8 9 9 9 8 9 10 11 12 13 13 14 15 17 18 19 21 21 22 22 22 21 20 19 19 17 15 13 12 11 11 12 11 11 12 12
3 3 3 5 6 6 5 5 5 4 4 4 4 4 5 6 7 7 7 7 6 7 7 7 6 6 7 6 5 4 3 2 2 2 3 3 4 4 4 4 6 6 5 6 7 6 6 5 6 6 6 7 8 8 9 10 11 12 13 14 16 17 19 20 21 22 22 23 22 21 20 18 17 15 14 13 11 10 10 10 10 11 11 12 12
3 5 5 6 6 6 6 5 5 4 4 3 2 2 2 3 4 4 4 4 5 6 7 8 7 6 6 6 5 5 3 1 1 2 2 3 4 5 4 4 5 5 4 4 6 6 5 5 3 3 4 5 7 8 9 10 12 14 15 16 17 19 20 21 22 22 22 22 21 19 17 15 13 12 11 10 9 8 8 8 9 10 11 11 11
5 5 6 6 5 5 5 4 4 3 2 2 1 1 1 1 1 1 1 2 3 5 7 8 8 8 8 7 6 5 3 1 1 1 1 3 5 6 6 5 5 4 4 4 5 5 5 4 3 1 2 4 6 8 9 11 13 15 16 16 17 19 22 24 25 25 23 21 19 17 14 11 9 8 7 7 7 7 7 7 8 9 10 11 11
6 7 6 5 4 4 3 3 3 2 2 2 1 1 1 0 1 1 1 1 3 4 6 8 9 9 9 8 6 3 1 1 1 2 0 3 6 6 6 6 6 6 6 5 5 6 5 4 3 3 3 4 5 7 9 11 13 14 15 17 19 22 25 27 28 27 23 19 16 14 11 9 7 6 5 6 6 6 7 7 8 9 10 10 11
6 6 6 4 2 2 1 1 2 2 2 2 2 1 1 0 1 2 2 2 3 4 4 5 7 7 7 6 5 4 4 3 2 2 1 2 5 7 8 8 8 7 6 6 6 7 6 5 4 5 5 5 6 8 10 11 13 15 17 20 23 26 28 31 30 27 22 17 13 11 9 8 6 5 5 6 6 7 7 8 8 9 9 9 9
7 6 5 3 2 1 1 0 1 1 2 1 1 1 1 1 1 2 2 2 2 3 2 2 3 4 5 5 5 6 6 6 5 4 2 2 5 7 8 8 8 7 6 6 6 6 6 6 6 7 6 6 7 9 11 13 16 18 20 23 25 27 30 32 31 25 18 13 10 8 7 7 5 5 5 6 6 6 7 8 8 8 8 8 9
7 6 4 3 2 1 1 1 2 1 1 2 2 2 3 3 2 2 2 2 2 1 1 1 2 3 4 4 5 6 6 7 7 5 2 3 6 8 8 8 7 6 6 6 6 6 6 6 7 8 7 8 9 12 14 16 18 20 22 24 25 28 30 32 29 21 13 9 8 8 7 6 4 2 2 4 5 6 6 7 7 7 7 8 9
7 5 4 3 3 3 3 3 2 2 2 1 1 1 1 1 1 1 1 1 1 1 2 2 2 3 4 4 5 7 8 8 7 5 3 4 6 7 7 8 7 7 7 8 7 7 7 7 8 9 9 10 12 13 15 17 19 20 21 23 25 27 30 30 25 16 8 6 7 7 6 6 5 3 2 3 4 6 7 6 6 7 8 9 10
6 5 4 3 4 4 4 3 3 3 3 2 2 2 2 2 3 4 4 5 5 6 5 5 5 5 5 5 6 6 6 6 5 3 4 6 7 7 8 8 8 7 7 8 8 9 9 9 9 9 9 10 12 14 15 17 19 20 21 23 24 27 29 28 21 12 6 5 5 5 5 6 6 6 6 6 6 7 8 8 7 8 9 10 11
6 5 5 5 4 4 4 4 4 3 2 1 2 2 2 4 5 7 8 9 9 8 7 6 5 5 5 5 5 5 3 2 2 3 5 6 7 8 7 7 6 6 7 9 10 10 10 9 8 8 9 11 12 13 14 16 18 19 20 22 24 26 28 25 16 8 4 3 4 4 5 5 5 6 7 7 6 7 8 9 9 10 11 10 10
6 5 4 4 4 4 4 3 3 3 2 2 2 3 4 5 5 6 6 7 7 6 6 5 4 4 4 3 2 1 1 1 0 1 3 4 5 6 6 5 6 8 9 9 9 9 8 8 8 9 10 12 13 14 15 16 17 18 19 21 23 26 25 19 11 5 2 2 2 2 4 4 4 5 6 5 6 7 8 9 9 9 10 10 9
6 5 4 4 3 3 3 3 3 3 2 3 4 4 4 4 4 4 4 3 2 2 2 2 2 1 1 1 1 1 1 1 2 1 1 1 2 3 4 5 6 7 8 8 8 8 8 9 10 11 13 14 15 15 15 15 16 17 20 23 24 23 18 11 5 2 1 1 1 1 2 3 4 4 4 5 6 8 8 9 8 8 9 10 10
Wind_Direction
222 223 222 219 218 218 219 221 223 225 227 227 229 232 234 237 240 242 243 243 240 236 230 227 230 238 243 246 248 252 257 265 270 272 269 266 264 263 264 264 265 267 269 267 264 263 264 264 264 263 262 266 271 273 275 280 284 283 281 285 290 296 300 299 297 300 311 318 305 287 289 298 291 282 287 277 242 235 236 228 223 227 230 237 251
220 221 221 221 221 221 220 221 223 224 226 228 230 233 235 238 240 241 240 239 236 229 225 226 232 240 245 248 251 254 255 258 266 272 273 271 266 261 260 259 260 264 265 266 265 262 262 264 267 267 265 267 270 272 275 279 279 275 275 281 285 288 290 289 290 295 305 316 307 289 288 297 296 288 286 276 248 244 248 245 236 231 235 245 253
223 222 220 220 222 223 222 222 224 226 227 229 230 232 235 237 238 239 238 237 235 229 227 229 234 241 246 249 252 254 254 253 257 264 269 271 266 257 255 258 261 263 266 269 270 265 260 258 261 265 267 270 272 273 275 276 275 273 275 281 281 280 282 280 280 288 298 308 307 294 292 296 294 290 288 281 271 264 256 251 252 248 243 246 249
224 224 221 219 220 222 223 223 224 227 229 231 232 233 235 237 238 240 241 240 238 235 235 237 240 244 247 249 253 256 257 254 253 256 261 264 266 262 261 266 269 270 272 273 273 269 264 261 263 265 268 272 275 278 278 276 275 274 276 278 276 276 277 275 276 283 291 298 302 292 291 295 294 292 292 289 284 277 264 255 255 254 251 251 251
223 224 222 220 219 220 222 223 224 227 230 233 234 234 235 237 238 239 239 237 235 235 238 240 241 242 244 246 249 252 255 256 253 254 256 258 264 268 269 271 274 276 277 275 272 269 264 263 265 267 270 273 276 281 282 279 277 276 276 275 273 273 271 269 272 278 283 290 295 290 289 293 293 292 292 291 289 284 277 268 263 262 262 263 261
223 224 223 221 221 220 221 222 224 226 229 231 234 235 236 238 238 237 234 231 227 228 234 237 238 240 241 244 247 248 250 252 253 254 255 255 258 264 270 273 275 278 278 274 270 268 264 262 265 269 272 275 279 282 283 282 282 280 279 278 273 267 263 262 266 272 277 284 289 289 289 291 293 293 287 284 285 285 283 277 272 271 271 270 269
223 223 223 223 224 222 221 222 223 225 228 229 232 235 237 237 237 235 232 228 225 227 233 236 237 241 245 248 251 251 248 250 254 257 261 262 260 262 268 272 274 276 276 272 268 267 264 262 265 270 271 273 279 284 286 286 285 282 281 278 269 259 255 255 259 268 276 282 284 286 289 290 292 292 287 282 282 284 285 282 274 270 269 269 269
224 223 225 226 226 225 224 224 223 223 226 228 231 233 233 232 232 231 230 226 222 226 233 238 240 244 249 252 254 253 248 249 254 257 263 269 269 268 271 274 275 274 273 271 268 266 262 259 261 266 269 274 281 285 287 287 284 280 276 272 264 256 254 256 261 270 279 283 284 288 291 292 289 286 283 283 283 283 283 281 278 273 269 268 267
225 225 225 227 228 228 227 227 225 224 224 225 227 227 226 227 229 231 230 226 224 229 237 244 247 248 250 252 254 254 253 253 256 258 262 269 272 273 275 276 276 275 273 271 267 262 257 255 259 264 270 276 280 281 283 281 277 274 271 265 258 252 252 260 269 278 284 285 287 289 291 290 287 284 283 284 284 283 280 277 276 275 273 270 268
226 226 228 230 232 231 231 230 228 226 224 222 222 221 221 226 231 233 233 231 231 235 241 247 250 251 251 252 252 254 256 258 260 260 264 270 273 273 274 274 274 273 273 270 266 261 257 257 259 266 272 276 278 276 275 272 269 270 268 262 255 252 252 259 268 278 282 282 283 285 284 283 284 284 283 282 281 280 279 276 275 275 274 273 271
227 227 228 232 233 233 231 230 229 226 224 220 217 217 223 230 235 237 237 235 234 235 241 248 252 253 254 253 253 253 256 259 261 262 263 268 270 271 272 272 271 269 269 267 264 262 260 260 263 268 272 276 278 275 271 269 269 269 266 260 257 256 255 257 262 268 273 276 278 279 280 281 283 284 284 283 281 278 276 276 277 276 274 273 274
226 225 226 229 233 233 231 230 229 228 225 220 216 220 230 237 240 238 235 235 237 240 246 252 255 256 255 254 253 252 253 255 257 258 259 263 266 268 270 269 265 264 263 263 265 265 263 266 270 274 276 277 277 275 272 272 271 268 264 260 257 255 256 258 261 264 269 273 275 275 277 281 283 285 286 285 283 280 279 279 279 278 276 274 274
221 222 224 226 231 235 234 229 228 228 226 222 221 228 238 242 241 238 234 235 239 244 247 250 253 254 253 253 252 252 253 253 253 254 256 259 261 265 267 264 261 263 264 263 264 264 264 269 274 278 281 281 276 276 276 274 271 268 265 262 258 256 257 259 263 268 272 274 275 276 277 280 282 283 284 283 284 285 286 286 284 281 278 276 274
217 220 223 225 227 232 231 226 225 226 225 222 222 228 234 233 230 231 233 234 236 239 243 246 250 252 252 252 252 252 252 253 252 253 254 255 257 261 264 261 257 260 263 263 263 266 269 274 277 280 281 278 276 279 281 279 274 269 263 260 259 258 259 262 264 269 273 275 277 279 279 279 280 280 280 281 284 287 289 289 287 283 280 278 275
219 221 222 222 221 220 221 223 226 227 225 224 225 230 234 233 229 227 230 232 234 237 243 248 251 253 253 252 252 251 251 252 253 254 254 254 256 259 261 259 255 256 259 262 266 270 272 271 273 277 276 273 273 278 281 282 278 271 262 260 261 263 266 270 270 270 272 274 274 276 277 279 279 279 279 280 282 284 286 286 286 285 284 282 279
216 217 214 213 211 210 214 220 226 228 228 227 227 232 238 241 239 235 232 236 241 244 247 251 253 253 253 253 253 252 252 253 254 255 255 256 257 258 258 255 254 257 261 262 264 265 265 265 267 269 270 268 268 274 279 281 280 276 270 266 267 271 274 276 276 276 275 275 275 276 277 278 279 278 278 279 282 284 284 284 284 286 286 285 282
204 203 202 203 204 204 209 216 220 222 222 217 216 224 232 235 236 234 232 234 239 243 246 249 250 251 252 252 252 253 254 255 255 255 255 254 255 255 253 251 253 257 260 260 260 258 257 257 258 260 263 265 268 273 278 280 280 279 276 271 272 277 279 278 279 278 276 276 279 280 280 281 281 280 280 283 286 288 288 288 289 289 288 286 285
195 193 192 195 198 199 205 212 212 210 209 207 206 214 221 226 232 235 235 237 241 245 248 249 250 252 252 252 252 253 255 255 255 254 253 252 252 251 250 250 251 253 253 255 257 254 246 243 247 255 264 270 274 279 284 286 284 281 278 276 277 281 282 280 276 275 277 279 279 279 279 281 282 282 283 285 287 288 288 289 289 288 286 287 289
177 176 179 187 195 200 208 217 222 223 226 228 227 228 233 238 242 245 246 248 250 250 251 251 251 252 253 254 255 257 257 256 255 253 252 251 252 252 251 251 249 249 249 250 254 252 246 245 256 265 272 278 285 291 295 296 293 289 287 287 288 289 290 287 284 284 288 291 288 283 281 281 282 283 283 283 283 284 286 286 285 284 282 283 285
162 167 174 186 195 202 211 221 230 236 242 247 250 253 253 253 254 255 256 256 255 254 254 254 254 254 254 256 258 258 259 259 258 257 255 252 251 253 254 252 248 249 249 245 247 251 255 264 274 279 283 289 294 297 299 298 296 294 294 294 295 296 296 296 296 297 299 299 297 294 290 288 287 287 287 286 286 285 283 282 282 281 280 279 279
157 165 175 188 196 201 208 217 227 238 246 253 257 258 257 258 259 261 261 260 258 258 258 258 260 260 260 260 260 260 260 261 262 261 259 256 254 254 253 251 250 250 243 234 238 251 261 269 276 283 290 293 293 295 298 298 297 296 298 299 300 300 301 302 303 304 305 306 306 304 301 299 297 298 301 301 296 291 289 289 287 284 281 280 279
154 171 177 180 183 189 199 210 222 235 244 252 256 257 262 267 267 265 264 263 261 259 258 259 261 263 262 260 259 258 257 259 260 259 258 256 254 251 249 249 251 247 232 222 224 232 234 243 264 281 291 295 294 297 309 320 320 317 316 316 316 315 316 317 316 316 318 320 320 320 321 320 320 319 317 308 289 281 284 287 284 280 278 275 273
145 163 153 145 145 151 163 177 186 195 200 206 215 215 209 294 292 295 301 308 301 276 261 261 265 267 268 265 260 255 252 252 252 248 244 243 242 238 238 242 241 230 222 217 209 199 193 206 287 315 330 340 339 344 355 0 2 6 10 6 0 357 354 351 347 344 341 338 333 330 331 334 335 329 321 308 288 278 277 277 276 276 279 278 278
115 112 107 108 113 118 122 125 128 130 128 125 128 121 101 89 87 81 73 62 57 63 69 65 56 24 266 250 238 234 236 241 243 234 217 205 213 222 224 229 228 212 200 188 161 127 105 94 88 78 64 52 43 33 29 32 37 39 39 40 38 35 30 25 19 12 3 358 359 358 357 354 347 342 343 343 335 324 317 312 308 309 313 314 314
103 100 99 100 102 104 107 107 106 105 103 101 101 99 93 90 90 87 85 84 83 83 81 77 76 83 95 109 115 119 130 143 212 220 191 178 201 224 221 224 234 165 110 111 112 109 103 99 95 88 77 66 58 54 53 56 56 50 46 51 57 56 51 45 38 29 23 23 23 21 19 15 6 358 355 352 344 336 334 333 332 332 337 343 346
99 98 98 96 96 99 101 100 99 97 97 95 94 92 91 91 92 92 91 91 90 89 89 89 89 92 95 93 91 88 87 86 87 91 104 119 166 200 185 171 157 119 109 113 117 115 107 101 95 88 78 68 61 59 58 57 53 49 47 47 48 50 51 50 48 47 47 44 38 32 28 22 15 8 2 359 355 354 357 359 357 354 353 354 354
97 96 96 96 98 99 99 99 99 98 96 95 94 94 95 95 96 97 96 95 94 95 96 95 94 94 93 89 87 87 84 82 81 81 84 94 111 124 123 121 122 123 125 125 121 114 108 102 93 82 72 64 60 58 57 56 51 48 46 43 43 46 46 44 44 45 45 43 39 36 34 27 19 13 8 7 8 11 14 13 11 9 6 359 354
96 96 95 95 95 96 96 98 99 99 98 98 97 97 97 98 100 100 98 97 97 97 98 98 96 94 91 89 89 88 86 82 80 81 86 94 103 110 116 121 124 126 125 121 114 108 103 95 85 76 68 61 58 55 52 49 47 46 46 46 47 49 50 48 47 46 43 40 36 33 31 26 23 20 16 15 16 18 17 14 13 14 10 3 359
96 95 94 93 92 92 92 92 93 94 96 97 97 97 96 96 97 98 98 99 99 99 99 99 97 94 92 91 91 91 90 86 82 80 83 91 102 113 119 122 124 123 119 112 104 100 95 89 82 77 68 58 52 49 47 47 49 52 52 50 51 51 50 49 48 44 39 34 30 27 23 20 20 19 17 15 16 16 14 11 11 10 6 3 5
98 97 96 94 92 91 90 90 90 90 90 91 92 93 93 92 91 91 92 92 94 97 98 98 96 96 94 93 93 92 90 88 87 85 85 90 101 114 120 122 121 117 112 107 101 95 91 90 86 79 66 51 46 46 47 49 52 54 52 49 49 46 41 41 38 32 27 25 22 19 15 13 11 11 10 9 10 8 6 5 4 4 3 5 7
101 101 99 97 94 92 91 90 89 88 86 86 86 88 90 90 89 87 86 86 87 90 94 97 99 101 100 99 97 95 93 92 93 93 93 96 103 112 119 124 124 121 119 115 106 99 95 93 87 74 53 40 42 47 49 48 48 47 44 42 42 38 34 32 29 22 18 20 18 13 10 8 7 5 3 3 1 358 355 354 354 357 2 5 7
103 103 103 102 100 97 95 94 92 89 86 83 82 82 85 87 88 86 84 83 84 86 90 96 101 102 101 98 96 95 94 93 92 93 93 94 96 100 105 107 108 110 120 132 120 116 111 92 75 62 47 46 53 54 52 49 46 43 40 38 37 34 31 29 25 19 20 22 19 14 10 6 1 356 352 349 346 343 342 343 346 350 356 360 4
102 104 105 105 104 102 101 100 98 95 91 87 83 80 79 81 84 87 87 85 85 86 89 94 98 99 99 98 95 93 91 89 87 85 82 80 81 82 85 88 87 85 85 87 102 109 102 76 66 62 57 58 58 51 47 46 42 38 37 36 34 32 30 28 24 21 23 24 21 18 17 12 5 359 353 348 344 339 335 334 336 340 344 348 354
96 99 103 106 107 106 106 105 104 102 100 97 92 85 81 80 81 83 86 87 87 87 88 90 93 94 95 95 93 91 88 85 82 77 73 71 70 66 72 84 88 83 73 71 77 82 77 67 64 60 52 48 43 38 37 37 34 31 31 30 28 26 24 21 18 17 17 15 13 12 11 8 3 1 360 358 356 350 342 336 332 333 336 339 341
91 92 99 108 113 114 113 113 114 112 109 108 106 101 94 90 87 86 87 86 86 87 88 88 90 91 91 90 88 86 83 78 76 76 74 71 66 59 60 72 78 74 68 65 64 64 63 58 53 46 38 33 31 30 31 30 28 28 29 26 22 19 15 12 11 8 6 4 3 2 360 356 354 354 355 354 355 354 351 347 342 338 337 336 335
97 96 98 109 124 128 123 118 120 120 115 111 112 112 110 105 100 96 92 88 87 88 88 88 90 92 93 92 90 88 83 76 74 77 77 73 67 60 58 61 61 60 60 59 55 53 51 46 39 33 28 27 28 29 29 28 29 29 27 22 18 14 9 7 4 360 357 355 354 353 351 349 348 348 348 348 349 351 350 347 345 344 343 342 341
118 115 108 114 135 147 139 119 107 109 110 106 105 110 116 117 114 108 100 94 92 91 91 91 91 92 93 95 95 93 88 81 75 72 71 71 66 58 55 56 54 54 56 55 51 46 41 37 35 32 33 36 38 37 35 32 30 27 22 17 13 8 4 1 357 352 349 348 346 345 344 344 343 344 344 345 346 346 344 341 339 341 343 342 341
177 190 178 159 160 166 162 142 112 96 96 96 96 102 111 115 119 118 112 103 100 100 100 98 94 93 96 100 101 100 96 88 80 68 58 55 51 45 46 46 43 43 46 45 43 40 37 39 44 48 52 54 53 51 47 40 32 25 18 12 7 2 358 354 349 345 344 342 340 339 339 339 339 341 344 347 346 343 340 337 336 337 337 337 339
240 245 225 188 181 187 188 174 152 126 108 100 99 104 108 113 125 133 130 121 115 113 113 111 104 103 109 116 119 116 103 83 70 51 31 20 10 14 29 34 32 34 36 31 27 28 30 37 51 62 66 63 59 56 51 41 30 22 14 8 3 358 354 349 346 344 342 340 339 337 336 336 337 339 343 347 348 344 340 337 336 338 340 342 344
224 202 168 155 166 177 176 168 166 161 146 129 116 109 108 111 121 129 132 129 124 119 122 129 129 123 124 132 142 146 129 83 48 20 359 338 323 327 351 9 10 16 22 15 8 6 12 29 56 76 75 62 54 50 42 31 21 14 9 5 1 358 355 351 348 344 341 340 339 338 336 337 339 341 345 348 349 348 345 341 341 344 346 347 348
188 176 161 149 154 166 166 163 169 172 166 161 154 142 131 124 122 125 133 141 143 138 138 143 151 151 150 153 164 176 182 184 7 354 330 304 294 298 307 323 336 348 360 354 345 341 345 2 37 82 85 62 46 35 25 17 11 7 4 2 0 359 358 355 351 347 344 342 340 339 339 340 341 344 349 351 352 350 347 346 347 349 349 350 352
187 183 173 162 165 175 176 175 177 174 176 193 202 188 201 209 169 172 180 172 177 177 166 160 161 167 173 178 183 189 192 187 42 30 315 250 259 273 282 288 297 308 313 311 311 315 323 332 347 34 57 41 27 16 7 2 1 1 0 359 358 358 357 356 354 352 349 345 342 341 343 346 346 346 347 346 344 344 345 345 347 346 347 350 352
192 184 175 167 177 192 198 204 211 216 224 232 234 219 222 214 166 195 201 170 176 189 185 177 173 174 178 187 198 211 236 333 25 42 62 233 242 254 264 268 276 287 293 292 297 308 315 314 317 338 360 8 4 357 350 350 355 358 358 356 356 356 356 355 354 353 351 348 343 342 346 349 348 346 343 340 338 338 337 337 340 343 346 349 351
184 181 176 173 183 194 194 208 214 209 210 218 224 223 222 162 124 125 123 128 140 156 174 184 184 184 190 202 224 249 270 285 315 358 10 246 242 248 252 255 261 267 271 278 291 300 300 298 312 336 349 347 340 339 340 345 353 356 354 353 353 353 353 353 352 350 348 346 344 344 348 351 347 343 343 343 343 343 342 342 345 349 353 355 358
184 185 185 191 207 239 300 249 165 124 106 109 147 153 129 105 107 111 107 108 122 133 153 189 202 212 225 239 253 264 274 286 302 319 326 238 241 249 253 253 254 255 263 278 290 289 281 289 316 339 345 334 329 334 339 345 349 349 348 349 349 348 349 350 350 347 344 343 347 352 357 354 346 344 351 354 356 357 358 359 360 5 10 12 13
196 199 203 213 224 245 239 194 171 132 68 60 73 88 95 94 91 93 93 92 90 100 146 212 230 245 258 271 283 293 304 311 311 309 285 230 233 240 244 248 253 264 283 295 292 275 267 285 316 332 333 325 326 333 338 341 343 343 342 343 343 343 345 347 347 342 337 340 351 359 1 357 350 343 351 358 359 358 357 357 360 7 10 8 8
197 199 205 210 203 190 187 192 212 252 278 304 336 5 33 38 26 19 25 26 10 340 304 284 278 279 286 299 311 320 327 323 311 296 249 224 231 238 248 260 273 287 294 291 277 261 262 285 308 318 318 317 322 328 331 334 336 335 335 336 338 339 342 345 344 336 327 341 359 12 25 37 48 60 42 8 359 357 359 2 4 7 8 6 3
192 195 200 201 195 191 200 224 252 260 256 250 252 270 295 309 314 320 321 316 309 304 299 297 297 297 301 311 318 326 329 320 298 257 222 227 237 244 254 267 280 287 284 271 256 250 259 280 297 306 308 311 317 322 327 330 331 330 330 332 334 336 340 343 340 330 323 351 17 35 49 56 61 59 50 44 38 28 24 23 18 10 5 2 3
196 203 204 204 206 211 224 244 256 253 250 256 261 268 292 309 316 317 315 311 308 304 299 297 296 296 302 309 314 317 319 308 268 223 220 233 244 251 260 273 282 272 254 245 245 253 268 284 295 302 306 310 316 321 324 324 324 324 325 328 331 334 337 339 336 326 330 7 33 38 33 36 47 52 50 49 45 32 22 16 10 6 3 4 10
205 207 207 211 220 229 234 242 251 260 276 299 315 328 336 336 331 325 317 311 306 300 294 293 297 302 309 317 319 328 356 15 16 223 226 235 247 254 259 261 255 242 235 240 252 268 283 295 303 309 313 315 317 318 318 318 320 323 325 326 329 332 334 335 331 323 343 27 45 35 30 34 40 44 44 37 25 16 12 8 7 10 13 15 20
207 205 211 217 219 219 226 242 259 273 291 311 328 348 6 22 30 34 36 32 9 318 292 296 307 320 351 84 125 116 47 28 17 2 318 270 263 259 249 244 246 250 257 270 281 289 296 304 309 312 313 311 310 311 315 319 324 327 326 327 329 331 333 331 317 301 339 36 40 17 28 30 27 29 31 23 16 15 15 12 12 12 11 11 12
Height
1523 1525 1527 1528 1531 1532 1534 1536 1538 1540 1542 1543 1544 1546 1547 1549 1550 1551 1552 1553 1554 1555 1556 1557 1558 1559 1559 1560 1561 1561 1562 1562 1563 1563 1563 1563 1563 1563 1563 1563 1563 1563 1563 1562 1562 1562 1562 1562 1562 1562 1561 1561 1561 1561 1561 1561 1561 1561 1561 1561 1561 1561 1560 1560 1559 1558 1558 1558 1557 1556 1556 1555 1556 1556 1555 1555 1555 1555 1555 1555 1555 1555 1556 1556 1556
1521 1522 1525 1527 1529 1530 1532 1535 1536 1538 1540 1541 1542 1544 1545 1547 1548 1549 1550 1551 1552 1553 1555 1556 1557 1558 1558 1559 1560 1560 1561 1561 1562 1562 1562 1562 1562 1562 1562 1562 1561 1562 1561 1561 1561 1560 1560 1560 1560 1560 1560 1560 1560 1560 1560 1560 1560 1560 1560 1560 1559 1560 1559 1559 1558 1557 1557 1557 1556 1556 1555 1555 1555 1555 1555 1555 1555 1555 1554 1554 1554 1555 1555 1555 1555
1519 1520 1522 1524 1526 1529 1531 1533 1534 1536 1537 1539 1540 1542 1543 1545 1546 1548 1549 1550 1551 1552 1553 1554 1555 1556 1557 1557 1558 1559 1559 1560 1561 1561 1561 1561 1561 1561 1561 1560 1560 1560 1560 1560 1559 1559 1558 1558 1558 1558 1558 1558 1558 1558 1558 1558 1558 1558 1558 1558 1558 1558 1558 1557 1557 1556 1556 1555 1555 1555 1555 1555 1555 1555 1554 1554 1554 1554 1554 1554 1553 1553 1553 1554 1554
1518 1519 1520 1522 1524 1526 1528 1530 1532 1534 1535 1537 1538 1540 1541 1543 1544 1546 1547 1548 1549 1550 1551 1552 1553 1554 1555 1555 1556 1557 1558 1559 1559 1560 1560 1560 1560 1559 1559 1559 1559 1559 1558 1558 1558 1557 1557 1557 1557 1557 1557 1557 1556 1556 1556 1556 1556 1556 1556 1556 1555 1556 1556 1556 1555 1555 1554 1554 1554 1554 1554 1553 1553 1553 1553 1553 1553 1553 1553 1553 1552 1552 1552 1552 1552
1517 1517 1518 1519 1521 1523 1525 1527 1530 1531 1533 1535 1536 1538 1539 1541 1542 1544 1545 1546 1547 1548 1550 1550 1551 1551 1552 1552 1554 1555 1556 1557 1558 1558 1558 1558 1558 1558 1558 1557 1557 1557 1556 1556 1556 1555 1555 1555 1555 1555 1555 1554 1555 1555 1555 1555 1554 1554 1554 1554 1554 1553 1554 1554 1554 1553 1553 1553 1553 1553 1553 1552 1552 1552 1551 1551 1551 1552 1552 1551 1551 1551 1550 1550 1550
1514 1514 1516 1517 1518 1520 1522 1524 1526 1528 1530 1532 1534 1536 1537 1539 1540 1541 1542 1544 1545 1546 1547 1548 1548 1549 1550 1550 1551 1552 1554 1555 1555 1555 1555 1555 1555 1555 1555 1555 1555 1554 1554 1554 1553 1553 1552 1552 1552 1553 1552 1552 1552 1553 1553 1553 1553 1552 1552 1552 1552 1551 1552 1552 1552 1552 1551 1551 1551 1552 1552 1551 1551 1551 1550 1550 1550 1550 1550 1550 1549 1549 1549 1549 1549
1511 1512 1513 1515 1516 1518 1519 1520 1522 1525 1527 1529 1531 1533 1535 1536 1537 1538 1539 1541 1542 1544 1544 1545 1547 1547 1548 1549 1549 1551 1553 1553 1553 1553 1553 1553 1553 1553 1553 1552 1552 1552 1551 1551 1551 1550 1550 1550 1550 1550 1550 1550 1550 1550 1550 1550 1550 1550 1550 1550 1549 1549 1550 1550 1550 1550 1549 1549 1549 1550 1550 1550 1549 1549 1550 1549 1549 1549 1548 1547 1547 1547 1547 1547 1547
1509 1511 1512 1513 1514 1516 1517 1519 1520 1522 1524 1526 1529 1530 1531 1532 1533 1535 1536 1538 1539 1541 1542 1543 1544 1545 1546 1546 1547 1549 1550 1550 1550 1550 1551 1551 1551 1550 1550 1550 1550 1549 1549 1549 1548 1548 1548 1547 1547 1547 1547 1547 1547 1547 1547 1547 1547 1547 1547 1547 1547 1547 1547 1548 1548 1548 1548 1547 1547 1547 1547 1547 1548 1548 1549 1548 1548 1547 1546 1545 1545 1545 1545 1545 1545
1507 1509 1510 1511 1512 1514 1516 1518 1519 1520 1522 1523 1525 1527 1528 1529 1531 1532 1534 1535 1537 1538 1539 1541 1542 1542 1543 1544 1545 1546 1547 1547 1547 1547 1548 1548 1548 1548 1548 1547 1547 1546 1546 1545 1545 1545 1545 1545 1545 1545 1545 1545 1545 1545 1545 1545 1545 1545 1545 1545 1545 1545 1545 1546 1545 1545 1545 1545 1545 1546 1546 1546 1546 1547 1547 1547 1547 1546 1545 1544 1544 1544 1543 1543 1543
1505 1507 1508 1509 1511 1513 1515 1516 1518 1519 1519 1520 1522 1524 1526 1527 1529 1530 1532 1533 1535 1536 1538 1538 1539 1540 1541 1542 1543 1543 1544 1544 1544 1545 1545 1545 1546 1545 1545 1545 1544 1543 1543 1542 1542 1542 1543 1543 1543 1544 1544 1543 1543 1543 1543 1543 1543 1543 1543 1543 1543 1543 1543 1544 1543 1543 1544 1544 1544 1544 1544 1545 1545 1546 1545 1545 1545 1544 1544 1543 1543 1542 1542 1541 1541
1503 1504 1506 1508 1510 1512 1514 1515 1516 1517 1518 1518 1520 1522 1524 1526 1528 1529 1531 1532 1534 1535 1536 1536 1537 1538 1538 1539 1540 1541 1541 1542 1542 1542 1542 1543 1543 1543 1543 1543 1542 1541 1540 1540 1540 1540 1541 1542 1542 1542 1542 1542 1542 1541 1541 1541 1541 1541 1541 1541 1541 1541 1541 1542 1542 1542 1542 1542 1542 1543 1543 1543 1544 1544 1544 1544 1543 1543 1543 1542 1542 1541 1541 1540 1539
1499 1501 1503 1506 1508 1510 1512 1514 1515 1516 1516 1517 1518 1520 1523 1525 1526 1527 1529 1531 1532 1533 1534 1535 1535 1536 1536 1537 1538 1538 1539 1539 1539 1540 1540 1540 1540 1540 1540 1540 1540 1539 1539 1538 1539 1539 1540 1540 1540 1541 1541 1542 1542 1541 1540 1540 1539 1539 1539 1539 1539 1540 1540 1540 1540 1540 1541 1541 1541 1541 1541 1541 1542 1542 1542 1541 1541 1541 1541 1541 1541 1540 1539 1538 1538
1496 1497 1499 1501 1504 1508 1511 1513 1514 1514 1514 1515 1517 1519 1522 1524 1525 1525 1526 1529 1530 1531 1532 1533 1533 1534 1534 1535 1535 1536 1536 1537 1537 1537 1538 1538 1538 1538 1538 1538 1537 1537 1537 1537 1538 1538 1538 1539 1539 1540 1541 1541 1541 1540 1539 1539 1538 1538 1538 1538 1538 1539 1539 1539 1540 1540 1540 1540 1539 1539 1540 1540 1540 1540 1540 1539 1539 1539 1539 1539 1539 1538 1537 1537 1536
1494 1495 1496 1498 1499 1502 1507 1511 1512 1512 1513 1514 1516 1518 1521 1522 1522 1523 1524 1527 1528 1529 1530 1531 1531 1532 1532 1532 1533 1534 1534 1534 1534 1535 1535 1536 1536 1535 1535 1535 1535 1535 1536 1536 1536 1536 1537 1538 1539 1539 1540 1539 1539 1539 1538 1538 1537 1537 1537 1537 1538 1538 1538 1538 1539 1539 1540 1539 1538 1538 1538 1538 1538 1538 1538 1538 1537 1537 1537 1537 1536 1536 1535 1535 1534
1493 1494 1496 1497 1497 1498 1502 1507 1510 1511 1512 1513 1515 1517 1518 1519 1520 1521 1523 1525 1526 1527 1528 1529 1529 1529 1529 1530 1531 1531 1531 1531 1532 1532 1533 1534 1534 1534 1533 1533 1533 1534 1534 1534 1535 1535 1536 1537 1537 1538 1538 1537 1536 1536 1536 1536 1535 1535 1535 1535 1536 1536 1537 1537 1537 1538 1538 1538 1537 1537 1537 1537 1537 1536 1536 1536 1536 1536 1535 1534 1534 1533 1532 1532 1531
1492 1494 1496 1496 1497 1497 1499 1504 1508 1510 1510 1511 1512 1515 1517 1519 1521 1522 1522 1523 1524 1525 1525 1526 1527 1527 1527 1528 1528 1528 1528 1529 1529 1530 1531 1532 1532 1532 1531 1531 1532 1532 1532 1532 1533 1534 1534 1535 1535 1536 1535 1535 1534 1534 1534 1534 1534 1534 1534 1534 1535 1535 1535 1535 1535 1535 1536 1535 1535 1535 1535 1535 1535 1534 1534 1534 1534 1534 1533 1532 1532 1531 1530 1528 1528
1492 1494 1496 1497 1497 1497 1499 1502 1506 1508 1508 1509 1512 1515 1518 1520 1521 1520 1520 1521 1522 1523 1524 1523 1524 1524 1524 1524 1524 1524 1525 1526 1527 1528 1528 1529 1529 1529 1529 1529 1530 1530 1530 1531 1531 1532 1532 1533 1533 1533 1532 1532 1533 1533 1533 1532 1532 1532 1533 1533 1534 1533 1533 1532 1533 1533 1533 1533 1533 1533 1533 1533 1533 1532 1532 1532 1531 1531 1530 1530 1530 1529 1527 1526 1525
1491 1492 1495 1496 1497 1497 1499 1501 1503 1505 1507 1510 1513 1516 1518 1519 1519 1519 1519 1520 1521 1521 1521 1520 1521 1521 1521 1521 1521 1522 1523 1524 1524 1525 1525 1525 1525 1526 1526 1527 1527 1528 1528 1528 1529 1529 1531 1532 1531 1531 1531 1531 1531 1531 1531 1531 1530 1531 1531 1532 1532 1532 1531 1530 1531 1531 1531 1531 1531 1531 1531 1531 1530 1530 1530 1530 1529 1528 1528 1527 1527 1526 1525 1524 1523
1490 1492 1494 1495 1496 1497 1498 1500 1502 1504 1507 1509 1512 1514 1516 1517 1517 1517 1517 1517 1517 1518 1517 1517 1518 1518 1517 1518 1519 1520 1521 1521 1522 1522 1522 1522 1522 1523 1523 1524 1525 1526 1526 1527 1528 1528 1529 1531 1531 1531 1530 1530 1529 1529 1529 1530 1529 1529 1530 1530 1530 1530 1529 1529 1529 1529 1529 1529 1529 1529 1529 1528 1528 1527 1527 1527 1527 1526 1525 1524 1524 1524 1522 1522 1521
1491 1493 1494 1495 1496 1497 1499 1501 1502 1504 1506 1508 1509 1511 1512 1513 1514 1514 1514 1514 1514 1514 1514 1514 1514 1514 1515 1516 1517 1518 1518 1518 1519 1519 1520 1520 1520 1520 1520 1521 1523 1524 1525 1526 1527 1527 1527 1528 1529 1529 1529 1528 1529 1528 1529 1529 1528 1528 1529 1528 1528 1528 1528 1528 1528 1527 1527 1527 1527 1526 1526 1526 1525 1525 1524 1524 1524 1523 1522 1522 1522 1521 1520 1519 1519
1493 1495 1496 1496 1497 1498 1499 1501 1502 1504 1505 1506 1507 1508 1509 1509 1510 1511 1511 1511 1511 1511 1511 1511 1511 1511 1512 1514 1514 1515 1515 1516 1516 1517 1517 1517 1518 1517 1518 1519 1520 1522 1523 1525 1525 1525 1525 1526 1527 1527 1528 1528 1528 1528 1528 1528 1528 1528 1528 1528 1527 1527 1527 1527 1526 1526 1525 1525 1524 1524 1524 1523 1523 1523 1522 1522 1522 1521 1520 1520 1519 1519 1518 1517 1516
1495 1496 1495 1496 1497 1498 1500 1501 1502 1504 1505 1505 1506 1506 1507 1507 1508 1508 1508 1508 1508 1508 1508 1508 1509 1509 1510 1511 1512 1512 1513 1514 1515 1516 1515 1516 1516 1516 1516 1517 1519 1521 1522 1523 1524 1524 1524 1525 1526 1526 1527 1528 1528 1528 1528 1528 1528 1528 1527 1527 1527 1526 1526 1525 1525 1524 1524 1523 1523 1523 1522 1522 1521 1521 1521 1521 1520 1520 1519 1518 1517 1517 1516 1516 1515
1496 1496 1495 1496 1498 1500 1501 1503 1503 1504 1505 1505 1506 1506 1506 1506 1506 1506 1507 1506 1506 1506 1506 1507 1507 1508 1508 1509 1510 1511 1512 1513 1514 1515 1515 1515 1516 1516 1516 1518 1519 1521 1521 1522 1523 1523 1524 1525 1526 1526 1527 1528 1528 1528 1528 1528 1529 1528 1527 1527 1527 1526 1525 1525 1524 1524 1523 1523 1523 1523 1522 1521 1521 1520 1520 1519 1519 1518 1517 1516 1515 1514 1513 1513 1512
1498 1498 1498 1499 1501 1502 1504 1505 1505 1505 1506 1507 1507 1507 1507 1506 1506 1506 1507 1507 1506 1506 1506 1506 1507 1508 1508 1509 1510 1511 1512 1512 1513 1514 1514 1514 1516 1516 1517 1518 1520 1521 1521 1521 1522 1523 1524 1525 1527 1527 1528 1528 1528 1528 1528 1529 1530 1528 1527 1527 1527 1527 1526 1525 1524 1524 1524 1524 1524 1523 1522 1521 1520 1520 1519 1519 1518 1517 1516 1515 1514 1513 1511 1511 1510
1500 1500 1501 1502 1503 1504 1505 1506 1506 1505 1506 1508 1507 1507 1507 1507 1507 1507 1508 1508 1508 1508 1508 1508 1509 1510 1510 1510 1510 1511 1511 1512 1514 1514 1514 1514 1516 1517 1518 1519 1520 1521 1522 1522 1523 1524 1525 1526 1528 1529 1529 1529 1529 1530 1530 1530 1530 1529 1528 1528 1527 1526 1525 1525 1525 1525 1525 1525 1525 1524 1523 1522 1521 1521 1520 1520 1519 1518 1516 1515 1514 1513 1511 1511 1510
1503 1503 1503 1504 1505 1506 1507 1507 1507 1507 1508 1508 1509 1509 1509 1509 1509 1509 1509 1510 1510 1511 1511 1511 1512 1512 1513 1513 1512 1512 1513 1513 1514 1515 1515 1516 1517 1518 1519 1520 1521 1522 1522 1523 1524 1525 1526 1527 1529 1530 1530 1531 1531 1531 1531 1532 1531 1531 1530 1529 1527 1526 1526 1526 1526 1526 1526 1526 1526 1525 1524 1523 1522 1522 1521 1521 1520 1518 1517 1515 1514 1513 1512 1512 1511
1506 1506 1506 1507 1508 1509 1510 1510 1510 1510 1510 1510 1511 1512 1512 1513 1513 1512 1512 1513 1513 1513 1514 1514 1515 1515 1515 1515 1515 1515 1515 1515 1516 1517 1517 1518 1519 1520 1521 1522 1522 1523 1523 1524 1525 1526 1527 1528 1530 1531 1532 1532 1533 1533 1533 1533 1532 1531 1530 1529 1528 1528 1528 1528 1528 1528 1527 1527 1527 1526 1525 1524 1523 1523 1522 1521 1520 1519 1518 1516 1515 1514 1514 1513 1512
1509 1509 1510 1510 1511 1512 1513 1513 1513 1513 1513 1513 1514 1515 1516 1516 1516 1516 1516 1516 1516 1516 1516 1516 1517 1517 1517 1518 1518 1517 1517 1518 1518 1519 1520 1520 1521 1522 1522 1523 1524 1524 1525 1526 1527 1528 1529 1530 1531 1532 1533 1533 1534 1534 1534 1534 1533 1532 1532 1531 1531 1530 1530 1530 1529 1529 1528 1528 1528 1527 1527 1526 1524 1523 1522 1522 1521 1520 1519 1518 1516 1515 1514 1514 1513
1513 1513 1513 1514 1514 1515 1516 1517 1517 1517 1517 1517 1517 1518 1518 1519 1520 1519 1519 1519 1518 1518 1519 1519 1519 1520 1520 1520 1521 1520 1520 1520 1521 1521 1522 1523 1523 1524 1525 1526 1526 1527 1527 1528 1528 1529 1530 1531 1532 1533 1534 1534 1535 1535 1535 1535 1534 1534 1533 1533 1532 1532 1531 1531 1530 1529 1529 1529 1529 1528 1527 1526 1525 1524 1524 1523 1522 1521 1520 1519 1518 1517 1516 1515 1513
1517 1517 1517 1518 1518 1519 1519 1520 1520 1520 1520 1520 1521 1521 1521 1522 1522 1522 1522 1521 1521 1521 1521 1521 1521 1522 1523 1523 1523 1523 1524 1524 1524 1524 1525 1525 1526 1527 1528 1529 1529 1529 1530 1530 1531 1531 1532 1532 1533 1534 1535 1535 1535 1535 1535 1535 1535 1535 1534 1534 1533 1532 1532 1531 1530 1530 1530 1529 1529 1528 1528 1527 1526 1525 1524 1524 1523 1522 1521 1520 1519 1518 1517 1516 1514
1520 1520 1521 1521 1522 1522 1522 1523 1523 1523 1523 1524 1524 1524 1524 1524 1524 1524 1524 1524 1523 1523 1523 1523 1524 1525 1526 1526 1526 1526 1526 1527 1527 1528 1528 1528 1529 1530 1530 1531 1531 1532 1532 1532 1532 1533 1533 1534 1534 1534 1535 1535 1535 1536 1536 1536 1535 1535 1535 1535 1534 1533 1532 1532 1531 1531 1530 1530 1529 1528 1528 1527 1526 1525 1525 1524 1523 1523 1522 1521 1520 1519 1517 1516 1515
1523 1523 1523 1524 1524 1525 1525 1525 1526 1526 1526 1527 1527 1528 1527 1527 1526 1526 1526 1526 1526 1526 1526 1526 1527 1528 1528 1529 1529 1529 1529 1530 1530 1530 1531 1531 1532 1532 1533 1533 1533 1534 1534 1534 1534 1534 1535 1535 1535 1535 1536 1536 1536 1537 1537 1537 1537 1536 1536 1535 1534 1534 1533 1532 1532 1531 1531 1530 1529 1528 1528 1527 1526 1526 1525 1524 1523 1522 1522 1521 1520 1519 1518 1517 1516
1526 1526 1526 1527 1527 1527 1528 1528 1529 1529 1529 1530 1530 1530 1530 1530 1529 1528 1528 1528 1528 1528 1528 1529 1529 1530 1530 1531 1532 1532 1532 1532 1533 1533 1533 1534 1534 1535 1535 1535 1535 1536 1536 1536 1536 1536 1536 1536 1536 1537 1537 1537 1537 1538 1538 1537 1537 1537 1536 1536 1535 1534 1534 1533 1533 1532 1531 1530 1529 1529 1528 1527 1527 1526 1525 1524 1523 1522 1521 1520 1520 1519 1518 1517 1516
1529 1529 1529 1529 1530 1530 1530 1531 1531 1531 1531 1532 1532 1532 1532 1532 1531 1531 1531 1531 1531 1531 1531 1531 1532 1532 1533 1534 1534 1534 1535 1535 1536 1536 1536 1537 1537 1537 1537 1537 1537 1538 1538 1538 1537 1537 1537 1538 1537 1538 1538 1538 1538 1538 1538 1538 1538 1537 1537 1536 1535 1535 1534 1534 1533 1532 1531 1530 1530 1529 1528 1527 1526 1526 1525 1524 1523 1522 1521 1520 1519 1518 1517 1516 1516
1531 1531 1531 1531 1532 1532 1532 1533 1533 1533 1533 1534 1534 1534 1534 1534 1534 1534 1534 1533 1533 1534 1534 1534 1535 1535 1536 1536 1537 1537 1538 1538 1538 1539 1539 1539 1539 1539 1539 1539 1539 1539 1539 1539 1538 1538 1538 1538 1538 1539 1539 1539 1539 1539 1539 1539 1538 1538 1537 1537 1536 1535 1534 1533 1532 1531 1531 1530 1529 1528 1527 1527 1526 1525 1524 1523 1522 1521 1520 1519 1518 1517 1516 1516 1515
1533 1533 1533 1533 1533 1533 1534 1534 1534 1535 1535 1535 1535 1535 1535 1535 1536 1536 1536 1536 1536 1536 1536 1537 1537 1538 1538 1539 1539 1539 1540 1540 1541 1541 1541 1541 1541 1541 1541 1540 1540 1540 1540 1539 1539 1539 1539 1539 1539 1539 1540 1540 1540 1540 1540 1539 1539 1538 1538 1537 1536 1536 1535 1533 1532 1531 1530 1530 1529 1528 1527 1526 1525 1524 1524 1523 1521 1520 1519 1518 1518 1517 1516 1515 1514
1534 1534 1534 1534 1535 1535 1535 1535 1535 1535 1536 1536 1536 1536 1536 1536 1537 1537 1537 1538 1538 1538 1539 1539 1540 1540 1540 1541 1541 1542 1542 1542 1542 1542 1542 1542 1542 1542 1542 1541 1541 1541 1540 1540 1540 1540 1540 1540 1540 1540 1541 1541 1541 1540 1540 1540 1539 1539 1538 1538 1537 1536 1535 1534 1533 1532 1531 1530 1529 1528 1526 1525 1525 1524 1523 1522 1521 1520 1519 1518 1517 1517 1516 1515 1514
1535 1534 1535 1535 1536 1536 1536 1536 1536 1536 1536 1536 1537 1537 1537 1537 1537 1538 1538 1539 1539 1539 1540 1540 1541 1541 1542 1542 1542 1543 1543 1543 1543 1543 1543 1543 1543 1543 1542 1542 1542 1542 1541 1541 1541 1542 1542 1542 1542 1542 1542 1542 1541 1541 1541 1541 1540 1540 1539 1538 1538 1537 1536 1535 1534 1533 1531 1530 1529 1528 1526 1525 1524 1523 1522 1522 1521 1520 1519 1518 1517 1516 1516 1515 1514
1535 1535 1535 1535 1536 1536 1537 1537 1537 1537 1537 1537 1537 1537 1538 1538 1538 1538 1539 1539 1540 1540 1541 1541 1542 1542 1542 1542 1543 1543 1543 1544 1544 1544 1544 1544 1543 1543 1543 1543 1543 1543 1543 1543 1543 1543 1543 1543 1543 1543 1543 1543 1543 1542 1542 1542 1541 1540 1540 1539 1538 1537 1536 1535 1533 1532 1531 1530 1528 1527 1526 1525 1524 1523 1522 1521 1520 1520 1519 1518 1517 1516 1515 1515 1514
1535 1535 1535 1535 1536 1537 1537 1537 1537 1538 1538 1538 1538 1538 1538 1539 1539 1539 1540 1540 1540 1541 1541 1542 1542 1542 1543 1543 1543 1543 1544 1544 1544 1544 1544 1544 1544 1544 1544 1544 1544 1544 1544 1544 1544 1544 1544 1544 1544 1544 1544 1544 1543 1543 1543 1542 1541 1541 1540 1539 1538 1537 1536 1534 1533 1532 1530 1529 1527 1526 1525 1524 1523 1522 1521 1521 1520 1520 1519 1518 1517 1516 1516 1515 1514
1535 1535 1536 1536 1536 1537 1537 1537 1538 1538 1538 1538 1539 1539 1539 1540 1540 1540 1541 1541 1541 1541 1541 1542 1542 1543 1543 1543 1544 1544 1544 1544 1544 1545 1545 1544 1545 1545 1545 1545 1545 1545 1545 1545 1545 1545 1545 1545 1545 1545 1544 1544 1544 1543 1542 1542 1541 1540 1540 1539 1538 1537 1536 1534 1533 1531 1530 1528 1526 1525 1524 1523 1523 1522 1521 1521 1520 1520 1519 1518 1518 1517 1516 1515 1514
1536 1536 1536 1536 1536 1537 1537 1537 1538 1538 1538 1539 1539 1539 1540 1540 1540 1541 1541 1541 1541 1541 1541 1542 1542 1543 1543 1543 1544 1544 1544 1544 1545 1545 1545 1545 1545 1545 1545 1545 1545 1545 1546 1546 1545 1545 1545 1545 1545 1545 1544 1544 1543 1543 1542 1541 1541 1540 1539 1538 1537 1536 1535 1534 1532 1530 1529 1527 1526 1524 1523 1523 1522 1522 1522 1521 1521 1520 1519 1519 1518 1517 1516 1515 1515
1536 1536 1536 1536 1536 1537 1537 1537 1537 1538 1538 1538 1539 1539 1540 1540 1540 1541 1541 1541 1541 1541 1541 1542 1542 1542 1543 1543 1543 1544 1544 1544 1544 1544 1544 1544 1544 1544 1545 1545 1545 1545 1545 1545 1545 1545 1545 1545 1544 1544 1544 1543 1543 1542 1542 1541 1540 1539 1539 1538 1536 1535 1534 1532 1531 1529 1528 1527 1525 1524 1523 1523 1522 1522 1522 1521 1521 1520 1520 1519 1518 1517 1517 1516 1515
1535 1535 1536 1536 1536 1537 1537 1537 1537 1537 1538 1538 1539 1539 1539 1540 1540 1540 1540 1541 1541 1541 1541 1542 1542 1542 1543 1543 1543 1543 1543 1543 1543 1543 1543 1543 1543 1544 1544 1544 1544 1545 1545 1545 1545 1545 1545 1545 1544 1544 1543 1543 1543 1542 1542 1541 1540 1539 1538 1536 1535 1533 1532 1531 1530 1528 1527 1526 1525 1524 1523 1523 1522 1522 1522 1521 1521 1520 1520 1519 1518 1518 1517 1516 1515
1535 1535 1536 1536 1536 1537 1537 1537 1537 1537 1538 1538 1539 1539 1539 1540 1540 1540 1541 1541 1541 1541 1542 1542 1542 1542 1542 1542 1542 1542 1542 1542 1542 1542 1542 1542 1543 1543 1543 1543 1544 1544 1544 1545 1545 1545 1544 1544 1544 1544 1543 1543 1542 1542 1541 1540 1539 1538 1537 1535 1534 1533 1531 1530 1529 1528 1527 1526 1525 1524 1523 1523 1523 1522 1522 1521 1521 1520 1520 1519 1518 1518 1517 1516 1515
1535 1536 1536 1537 1537 1537 1537 1537 1538 1538 1538 1539 1539 1539 1539 1540 1540 1540 1540 1540 1541 1541 1541 1541 1541 1542 1541 1541 1541 1541 1541 1541 1541 1541 1541 1541 1542 1542 1542 1543 1543 1543 1544 1544 1544 1544 1544 1544 1544 1543 1543 1542 1542 1541 1540 1539 1538 1537 1536 1535 1534 1533 1531 1530 1529 1527 1526 1525 1525 1524 1524 1523 1523 1522 1522 1521 1521 1521 1520 1520 1519 1518 1518 1517 1516
1536 1536 1537 1537 1537 1538 1538 1538 1538 1539 1539 1539 1539 1539 1539 1539 1540 1540 1540 1540 1540 1540 1540 1540 1541 1541 1540 1540 1540 1540 1540 1540 1540 1539 1540 1540 1541 1541 1542 1542 1543 1543 1543 1543 1543 1543 1544 1543 1543 1543 1542 1542 1541 1541 1540 1539 1539 1538 1536 1535 1534 1533 1532 1530 1529 1528 1526 1526 1525 1524 1524 1523 1522 1522 1522 1521 1521 1521 1520 1520 1519 1519 1518 1517 1516
1536 1537 1538 1538 1538 1539 1539 1539 1539 1539 1539 1539 1539 1539 1539 1539 1539 1539 1539 1539 1539 1539 1539 1539 1539 1539 1539 1540 1539 1539 1539 1539 1539 1539 1539 1540 1540 1541 1541 1542 1542 1543 1543 1543 1543 1543 1543 1543 1543 1543 1542 1542 1541 1541 1540 1539 1539 1538 1537 1536 1535 1533 1531 1530 1529 1527 1526 1526 1525 1525 1524 1524 1523 1523 1522 1522 1521 1521 1521 1520 1520 1519 1518 1518 1517
1537 1537 1538 1538 1539 1539 1539 1539 1539 1539 1539 1539 1540 1539 1539 1539 1539 1539 1539 1538 1538 1538 1538 1538 1538 1538 1539 1539 1538 1539 1539 1539 1539 1539 1539 1540 1540 1540 1541 1541 1542 1542 1543 1543 1543 1543 1543 1543 1543 1542 1542 1542 1541 1540 1540 1539 1538 1538 1536 1535 1534 1532 1531 1530 1528 1527 1527 1526 1526 1525 1525 1524 1524 1523 1523 1522 1522 1522 1521 1521 1520 1520 1519 1518 1517
1537 1538 1538 1539 1539 1539 1539 1539 1539 1539 1539 1539 1539 1539 1539 1539 1539 1538 1538 1537 1537 1537 1537 1537 1537 1537 1538 1538 1538 1538 1538 1538 1539 1539 1539 1539 1540 1540 1541 1541 1542 1542 1542 1543 1543 1542 1542 1542 1542 1542 1542 1541 1540 1540 1539 1539 1538 1537 1535 1534 1533 1531 1530 1528 1527 1527 1527 1526 1526 1526 1525 1525 1524 1524 1523 1523 1523 1522 1522 1521 1521 1520 1519 1519 1518
1537 1538 1538 1538 1539 1539 1539 1539 1539 1539 1539 1539 1539 1539 1539 1539 1538 1538 1538 1537 1536 1536 1536 1536 1536 1537 1537 1537 1538 1538 1538 1538 1538 1539 1539 1540 1540 1540 1541 1541 1541 1542 1542 1542 1542 1542 1542 1542 1541 1541 1541 1540 1540 1539 1538 1537 1536 1535 1534 1532 1531 1530 1529 1527 1527 1527 1527 1526 1526 1526 1526 1525 1525 1524 1524 1524 1523 1523 1522 1522 1521 1521 1520 1519 1518